Location: Unspecified
(0.0000°N, 0.0000°E)
Time: 14:31:34
(UTC+00:00)

N. Korean satellite - Visible Passes

Search period start: 27 January 2022 00:00
Search period end: 06 February 2022 00:00
Orbit: 447 x 490 km, 97.3° (Epoch: 26 January)

Date Brightness Start Highest point End Pass type
(mag) Time Alt. Az. Time Alt. Az. Time Alt. Az.
27 Jan 10.0 03:59:42 10° E 04:00:29 11° E 04:01:15 10° ESE visible
27 Jan 7.9 05:30:46 10° NNW 05:33:20 19° WNW 05:35:54 10° SW visible
28 Jan 6.5 05:00:40 10° N 05:04:12 59° W 05:07:42 10° SSW visible
29 Jan 7.9 04:31:41 10° NNE 04:35:02 38° E 04:38:21 10° S visible
30 Jan 9.8 04:04:11 10° ENE 04:05:52 13° E 04:07:32 10° SE visible
30 Jan 8.2 05:36:35 10° NW 05:38:43 15° WNW 05:40:51 10° WSW visible
31 Jan 6.7 05:06:07 10° N 05:09:32 46° W 05:12:56 10° SSW visible
01 Feb 7.5 04:36:54 10° NNE 04:40:20 48° E 04:43:44 10° S visible
02 Feb 9.6 04:08:55 10° ENE 04:11:06 16° E 04:13:16 10° SE visible
02 Feb 8.4 05:42:26 10° NW 05:43:57 12° WNW 05:45:29 10° WSW visible
03 Feb 7.0 05:11:27 10° N 05:14:44 37° W 05:18:00 10° SSW visible
04 Feb 7.0 04:42:00 10° NNE 04:45:30 61° ESE 04:48:56 10° S visible
05 Feb 9.3 04:13:42 10° NE 04:16:13 19° E 04:18:43 10° SSE visible
